Lid_Strength_Index
5 5 5 7 8 6 8 8 10 9 7 6 5 4 4 5 5 5 4 4 3 3 3 2 2 2 1 1 1 1 1 0
6 5 5 6 5 9 8 12 12 10 9 9 6 5 5 6 6 5 4 4 3 3 3 2 2 1 1 1 1 1 1 1
6 7 7 7 7 7 7 8 11 12 10 5 5 5 6 6 6 5 4 4 3 3 2 2 2 1 2 2 1 1 1 0
7 5 5 6 7 7 9 10 9 9 9 5 6 6 6 6 5 5 4 3 3 3 2 2 2 2 2 2 1 1 1 1
9 7 6 7 6 6 6 7 9 10 9 5 5 5 5 6 5 4 4 3 3 3 2 2 2 2 2 2 1 1 1 1
10 8 7 8 7 6 7 9 9 9 8 8 7 7 6 5 5 5 4 3 3 3 3 2 2 2 2 2 1 1 1 1
7 7 7 7 7 7 7 7 9 8 8 9 7 7 6 5 5 5 4 4 4 3 3 2 2 2 2 2 1 1 1 1
8 7 7 8 7 7 7 7 7 7 9 7 6 5 6 5 5 5 5 4 3 3 3 3 2 2 2 2 2 1 1 1
9 8 8 10 8 7 8 8 8 8 9 7 7 6 6 6 5 5 4 4 3 3 3 2 2 2 2 2 1 2 2 1
9 9 12 10 7 7 8 9 8 8 8 7 6 5 5 5 5 4 4 3 3 2 2 2 2 2 1 1 2 2 2 1
10 10 11 10 9 9 9 10 7 8 7 6 5 5 6 4 4 4 4 3 3 2 2 2 2 2 2 2 2 2 2 2
9 11 13 10 8 6 7 11 7 7 7 7 6 8 7 4 4 4 3 3 3 2 2 2 2 1 2 2 2 2 2 1
9 10 10 8 7 6 12 12 6 6 6 6 7 6 4 3 4 3 3 3 2 3 2 2 1 1 2 2 2 1 1 1
9 10 12 7 7 11 8 6 5 5 5 5 5 4 4 3 3 3 3 2 2 3 3 2 1 2 2 2 1 1 1 1
11 11 7 5 6 5 5 5 5 5 4 4 4 4 4 4 3 3 3 3 2 2 2 1 2 1 2 1 1 1 1 1
9 8 7 6 5 4 4 5 4 4 4 3 4 4 4 4 3 3 3 2 2 2 2 2 1 1 1 1 1 1 1 1
8 6 6 5 5 4 4 4 4 3 3 4 4 4 3 3 4 3 3 2 2 2 2 3 2 2 1 1 0 2 2 1
9 5 5 6 4 4 4 4 3 4 4 3 3 3 3 4 3 3 3 3 3 2 2 2 2 2 1 1 1 2 2 2
6 4 5 4 4 3 4 3 3 3 3 3 3 3 3 3 3 3 2 2 3 3 2 2 1 2 1 1 1 2 2 2